Dewpoint
20 20 19 18 14 13 12 11 11 9 10 8 6 9 6 3 1 0 -3 -4 4 7 5 3 5 5 7 7 7 38 40 38 37 34 25 25 32 39 41 46 51 56 58 61 63 64 66 66 66 66 66 66 67 67 67 66 65 65 64 65 65 66 68 69 67 68 68 67 67 65 64 64 65 64 65 66 67 68 69 68 67 67 66 67 66 66
19 19 18 15 13 12 12 12 13 13 11 8 6 5 4 7 3 -0 -1 1 -1 7 7 9 4 5 10 9 8 12 38 39 38 34 29 29 34 37 42 46 51 56 59 62 62 65 65 65 66 66 66 67 66 66 66 66 65 65 65 65 65 66 68 67 68 67 67 67 65 67 68 69 63 64 64 65 67 67 68 67 67 67 65 66 66 65
22 17 15 15 14 12 11 12 12 14 12 8 7 6 4 4 4 0 1 2 -1 6 8 7 5 7 11 7 10 3 23 36 38 34 31 30 30 36 41 46 52 56 59 60 63 65 65 66 66 66 66 67 67 67 66 67 65 65 65 65 66 65 67 68 67 67 65 67 67 66 65 64 63 64 65 64 66 67 67 67 66 66 66 65 64 64
12 16 16 15 14 12 11 11 13 12 12 11 9 7 7 7 3 3 1 0 -2 7 9 9 5 9 11 12 12 6 25 37 42 38 35 32 28 31 40 45 53 56 59 60 61 63 64 63 64 65 66 66 67 66 68 67 66 66 66 66 66 66 67 66 67 66 67 67 67 66 66 65 64 64 65 66 65 66 65 65 64 65 65 64 64 62
1 7 15 15 13 12 11 11 10 11 10 11 8 6 8 6 1 4 -1 1 1 6 8 6 9 9 11 8 9 11 24 37 40 37 33 30 33 34 44 49 54 56 57 59 61 63 63 63 64 65 66 66 66 66 64 63 65 67 66 67 66 66 67 66 66 66 66 67 66 66 66 65 65 64 64 64 64 64 64 64 64 63 63 63 62 62
2 2 10 15 14 10 12 11 10 10 10 10 10 7 7 7 7 5 0 2 6 9 7 3 5 8 11 8 6 8 15 32 35 36 34 30 30 33 42 49 52 58 59 60 60 62 63 63 64 65 65 66 65 64 65 64 65 66 65 68 67 66 67 67 67 66 67 66 66 65 64 64 63 62 62 62 62 62 63 61 63 62 62 61 61 60
1 6 3 9 12 9 11 10 9 11 10 12 9 8 8 7 5 3 1 3 4 6 5 4 3 5 9 8 9 11 13 28 35 35 34 33 33 35 42 49 52 55 58 61 61 60 62 63 64 64 66 65 65 65 66 66 66 67 66 67 66 66 65 66 67 67 66 66 66 66 65 65 64 64 64 65 65 64 63 63 62 62 62 60 60 60
3 4 4 7 12 14 10 11 9 9 9 7 6 7 8 6 5 6 4 -0 4 6 4 3 0 3 3 7 11 11 13 24 34 33 33 33 37 39 45 49 52 54 55 55 60 60 62 63 63 64 65 64 64 66 65 65 66 65 66 66 65 65 65 65 66 66 65 65 66 65 65 64 64 64 64 64 64 63 63 62 62 61 60 59 58 58
5 1 2 4 11 12 13 8 11 9 6 8 9 8 10 9 5 4 2 2 3 6 4 2 2 2 5 15 14 13 13 21 32 35 35 35 34 40 44 48 51 52 56 56 56 59 62 63 64 64 64 64 65 65 64 65 65 66 65 66 65 65 65 65 66 66 66 66 65 64 64 64 64 64 63 64 65 64 62 61 61 60 59 59 58 57
2 3 3 4 10 14 13 10 9 9 7 7 9 10 11 10 7 7 5 3 6 9 10 4 -1 3 8 12 12 12 11 17 31 35 35 37 37 40 44 46 49 52 55 57 58 59 62 63 63 65 64 64 65 65 65 65 65 65 65 65 65 64 64 65 66 66 66 66 65 64 64 63 63 63 62 62 62 63 63 61 60 60 59 57 58 57
5 12 10 7 13 15 13 12 10 10 12 10 9 7 6 5 6 9 9 7 9 9 10 5 4 4 4 8 8 13 15 18 30 33 35 37 35 38 43 44 47 50 50 54 56 59 63 64 64 64 64 64 65 64 64 65 64 64 64 64 64 64 64 65 65 66 66 66 65 65 65 64 64 63 62 61 61 60 60 60 60 59 59 58 57 56
8 9 10 12 19 18 15 10 9 14 12 9 6 6 5 10 9 10 11 9 9 10 9 3 0 3 3 4 5 15 16 20 32 34 36 36 33 37 42 44 47 49 46 52 56 58 61 64 64 63 63 64 64 64 64 64 65 64 64 64 64 64 64 65 65 65 66 65 64 65 65 64 64 62 61 62 61 60 59 59 59 59 58 58 57 56
10 9 13 13 23 20 16 13 15 13 10 7 6 6 7 10 9 8 9 9 8 9 9 4 2 3 2 8 8 6 22 27 32 32 35 35 32 38 39 42 45 48 48 53 52 58 62 63 63 63 62 63 64 63 64 64 64 64 64 65 64 64 64 65 66 65 65 65 65 64 64 64 64 63 62 62 61 61 60 60 60 59 57 56 56 55
11 10 14 15 18 22 18 13 11 9 8 6 7 7 9 8 8 11 6 9 9 9 6 5 2 9 11 10 11 7 18 27 32 35 34 33 35 38 38 41 44 44 46 52 55 58 63 63 62 62 63 63 64 63 63 64 64 65 64 65 64 64 64 65 66 65 65 65 65 64 64 64 63 63 63 62 61 60 60 60 60 59 57 55 54 55
11 11 14 16 17 19 19 15 14 11 8 6 5 4 10 10 8 12 6 10 9 7 9 4 5 13 15 17 13 11 16 28 31 31 31 34 35 36 38 41 41 45 50 51 54 58 61 63 63 62 62 63 64 64 64 64 64 64 64 64 64 64 64 65 66 65 64 64 64 64 64 64 63 63 62 62 61 60 60 60 59 58 56 55 55 54
9 11 13 16 17 18 16 17 15 11 8 8 5 6 9 11 13 8 11 10 12 11 11 14 16 15 17 29 19 14 13 27 32 30 29 31 32 37 40 41 39 45 49 51 55 59 62 64 63 62 63 63 63 63 64 63 64 64 64 64 64 63 64 64 64 64 64 64 64 64 64 63 63 62 62 61 61 61 61 60 58 58 57 56 55 55
9 11 13 14 15 16 15 17 17 13 11 8 4 6 7 9 8 15 18 22 22 15 13 15 15 18 16 27 24 18 11 27 31 28 26 33 36 39 39 39 41 45 50 52 55 56 61 63 63 63 62 63 63 64 63 64 64 64 64 64 64 63 63 64 64 64 64 64 64 64 63 63 62 62 62 61 62 62 61 60 59 58 56 56 55 54
11 9 8 11 12 16 16 15 17 14 9 5 4 3 7 8 9 16 11 17 16 11 13 14 14 15 9 14 23 24 14 26 31 29 26 33 35 36 38 39 40 45 50 52 52 57 59 62 62 62 62 63 63 64 63 63 65 64 64 63 63 63 63 64 63 64 64 64 64 63 63 63 62 62 62 61 61 61 59 58 58 58 57 56 54 54
12 7 7 10 13 15 15 16 17 16 13 5 4 6 5 12 9 14 15 14 15 14 9 11 12 13 16 23 22 23 17 27 31 32 30 29 33 34 34 35 38 45 52 53 55 57 59 61 61 62 62 61 62 64 64 63 63 64 64 63 62 63 63 63 64 64 64 64 63 63 63 63 62 62 61 61 60 60 59 57 57 57 56 55 54 52
20 11 9 12 12 14 14 13 16 14 11 9 7 4 4 11 14 12 17 19 14 12 14 12 13 17 21 21 27 26 26 29 30 30 27 27 30 34 36 35 40 46 49 55 57 58 58 60 61 62 63 61 62 64 64 64 63 63 64 63 62 63 63 63 63 64 64 64 64 63 63 63 61 60 61 60 60 59 58 56 56 55 55 55 53 52
18 27 12 10 12 15 14 14 16 16 12 9 8 6 4 15 11 11 19 11 11 12 9 13 15 19 22 16 26 26 28 31 30 27 26 26 28 31 35 39 42 47 52 53 54 57 58 59 61 62 63 62 63 63 63 64 63 64 63 63 63 62 63 63 63 63 63 63 63 63 62 62 62 61 60 59 59 58 57 56 55 55 55 53 53 52
24 28 19 13 10 13 14 14 15 17 11 7 8 6 2 5 8 10 13 10 10 14 15 12 15 23 25 17 24 26 29 28 27 25 26 25 27 35 41 45 47 51 54 49 51 59 59 59 61 62 63 62 63 63 63 63 64 63 63 62 62 62 63 63 62 62 63 63 63 62 62 62 62 60 59 59 58 57 55 55 55 55 53 52 51 50
26 28 23 12 11 13 13 14 16 16 13 7 6 5 3 10 12 13 14 14 11 8 8 14 12 20 26 21 20 26 29 25 28 27 29 32 37 42 46 47 50 53 55 53 58 59 59 60 60 62 62 62 62 62 63 63 63 63 62 62 62 62 62 62 61 62 63 62 61 62 63 61 60 59 58 58 57 56 54 54 55 54 53 51 51 49
28 25 14 10 8 10 13 14 17 17 14 7 6 6 3 7 10 13 19 20 12 13 9 11 12 17 27 27 26 26 31 28 28 29 30 33 37 36 38 44 50 53 53 56 57 59 59 59 60 61 62 62 62 62 62 62 63 63 63 62 61 62 62 62 61 62 62 61 61 62 62 60 59 59 58 57 57 56 55 54 54 52 52 51 50 47
24 23 15 11 10 9 12 13 13 15 14 11 11 12 7 6 7 14 12 19 14 16 12 12 11 19 31 31 27 25 26 25 27 27 31 33 38 41 41 45 45 51 54 55 57 57 58 58 58 60 60 61 62 62 63 62 61 62 62 62 62 62 61 61 62 62 61 61 61 62 60 59 58 58 58 57 56 56 55 54 53 52 50 50 48 47
26 23 15 11 11 10 9 11 13 14 14 14 12 7 6 4 11 15 13 14 13 18 12 18 15 20 26 29 27 26 24 26 26 25 28 33 36 34 36 42 50 53 55 56 58 58 58 57 58 60 61 60 62 61 62 62 62 62 62 62 62 62 62 61 62 61 62 62 61 60 60 59 58 58 58 57 56 55 54 54 53 51 51 48 47 47
27 28 31 20 12 12 14 13 13 17 17 14 13 9 9 8 7 16 18 13 12 17 16 17 18 21 23 24 25 26 28 27 31 35 37 42 38 36 38 46 53 56 57 57 58 58 57 58 58 60 61 61 62 62 62 62 61 61 61 62 62 62 61 61 61 61 60 61 61 59 59 59 58 58 57 56 55 55 54 52 52 51 49 48 47 47
25 25 26 30 28 19 12 13 11 13 12 12 12 13 10 10 14 19 16 14 17 16 10 18 26 25 22 23 23 26 28 31 32 32 32 38 47 50 51 53 52 52 54 58 58 57 56 57 59 60 60 61 61 62 62 62 62 61 62 61 61 61 61 61 61 61 60 60 60 59 58 58 58 58 57 55 54 53 53 52 51 51 50 48 47 47
30 22 23 26 29 19 20 12 6 10 10 12 11 14 15 13 15 19 20 16 23 16 13 20 24 25 22 24 28 31 33 36 36 40 41 42 37 43 44 48 48 46 49 55 57 57 56 57 59 60 61 61 61 61 61 61 60 61 61 61 61 61 60 61 61 60 59 59 59 59 58 58 57 56 55 54 53 52 52 51 51 51 49 48 48 47
27 24 29 25 26 21 18 17 15 5 5 10 10 11 13 13 15 16 18 16 18 23 22 23 23 25 22 25 27 32 34 36 36 37 39 40 46 45 42 44 45 45 49 54 57 57 57 57 59 61 61 61 61 61 61 61 60 61 61 61 60 60 61 60 59 59 59 58 58 57 56 57 56 54 54 53 52 51 51 51 51 50 49 47 46 45
25 25 28 27 22 21 22 20 15 13 12 13 9 9 10 11 14 14 20 22 22 21 21 22 23 21 23 26 38 37 38 33 39 36 38 39 43 46 44 45 42 46 50 53 56 56 56 57 58 61 61 61 61 61 60 60 60 61 61 61 60 60 60 59 59 59 58 58 58 57 56 55 54 54 53 52 52 51 53 54 51 49 48 47 46 45
31 28 26 26 23 24 22 23 24 22 22 17 16 16 13 18 21 20 19 22 23 22 22 23 22 18 19 27 35 37 38 34 34 39 41 40 42 47 46 45 41 45 52 54 55 56 56 56 59 59 60 61 60 60 60 60 61 61 60 61 59 59 59 59 59 59 58 58 58 56 54 54 53 53 52 52 51 53 55 53 50 49 47 47 46 46
31 27 27 25 20 22 27 27 27 25 24 20 21 19 19 20 17 21 16 20 23 25 21 18 16 20 24 29 30 30 31 38 38 37 42 42 42 45 48 48 48 49 52 54 55 55 55 56 58 60 60 60 61 60 61 60 60 61 61 60 59 59 59 60 59 59 59 59 58 56 55 54 53 53 52 51 53 54 52 51 50 48 47 46 47 46
30 31 29 35 25 28 29 31 30 23 15 16 23 26 22 20 18 19 20 22 24 24 20 22 22 25 24 24 26 24 28 39 43 40 39 40 44 48 48 50 51 52 53 55 56 56 56 57 59 59 59 60 60 59 60 60 60 60 60 60 58 59 59 59 59 58 57 57 56 55 55 54 54 53 53 53 52 52 50 50 51 49 47 47 47 47
30 30 25 29 25 23 29 30 21 20 17 31 25 21 21 22 16 17 22 18 19 18 21 20 20 22 22 22 21 23 32 39 42 40 36 38 45 48 50 51 53 54 55 55 56 56 58 59 58 59 60 59 60 60 59 59 60 60 60 59 59 59 58 58 59 57 57 56 56 55 54 52 51 52 51 51 50 50 50 50 50 47 46 47 47 47
27 27 28 28 26 26 24 20 18 19 29 33 27 27 25 21 21 22 22 21 18 19 18 20 19 19 23 22 21 21 31 40 39 35 42 43 44 49 52 54 55 55 54 55 56 57 58 59 61 60 60 60 59 59 59 59 60 59 59 58 58 57 57 58 57 56 56 55 54 54 53 51 50 50 50 50 49 49 49 49 48 47 48 48 47 46
34 32 32 29 29 24 23 21 19 25 24 27 28 28 23 22 23 22 17 18 24 22 20 19 19 21 22 21 20 20 35 40 34 28 41 47 49 51 54 55 54 54 55 56 56 57 61 60 60 61 61 61 60 60 60 60 60 59 58 58 57 57 57 58 57 56 55 55 54 53 51 50 50 50 49 49 49 48 49 49 48 48 47 47 46 46
33 31 34 32 28 26 23 23 18 17 18 24 35 35 30 39 35 28 23 19 26 22 22 21 21 22 23 21 21 24 40 36 27 22 39 49 51 53 54 56 55 55 55 56 56 56 57 60 61 61 61 61 61 60 59 58 58 57 57 57 57 56 56 56 57 56 55 55 53 52 50 50 50 50 49 49 48 48 49 49 48 47 48 47 45 47
36 35 34 31 29 26 25 23 20 18 28 39 39 37 38 38 37 32 23 15 21 22 21 21 20 21 21 22 24 28 34 28 23 31 51 52 52 54 55 55 55 55 55 56 57 57 56 58 59 59 59 60 61 60 59 58 57 56 56 56 56 56 56 56 55 55 54 51 51 51 50 50 50 49 48 48 48 49 49 49 50 51 50 50 50 48
35 34 32 28 28 26 26 21 19 28 31 40 41 42 36 35 38 29 17 16 24 23 22 21 20 21 23 26 26 30 34 30 22 48 54 54 54 55 55 54 55 56 54 54 56 58 57 58 59 59 59 58 60 60 58 58 57 57 56 56 56 56 55 56 56 54 53 52 52 51 51 51 50 49 49 48 48 48 48 47 47 46 46 46 43 43
29 30 31 29 27 25 25 21 19 32 37 42 42 39 38 38 33 23 17 21 45 40 20 22 21 23 26 27 28 28 35 38 54 54 56 55 54 54 54 55 56 55 54 54 55 53 57 57 58 57 58 58 58 58 58 57 57 57 56 56 56 56 56 56 55 55 53 52 51 51 51 50 50 50 49 48 47 47 46 46 46 46 45 44 44 44
30 31 30 30 27 24 25 22 20 31 41 44 42 36 35 36 24 19 42 48 47 46 47 38 26 26 28 28 33 32 39 53 54 52 54 55 55 54 53 54 54 54 53 53 56 57 58 56 58 57 58 58 58 58 58 58 57 56 56 56 56 56 55 54 52 51 50 50 49 49 49 50 50 50 48 47 47 46 46 46 45 45 44 42 42 42
30 28 26 25 27 26 24 20 20 23 39 45 44 34 38 33 35 44 48 47 45 47 47 47 45 43 41 37 36 42 50 53 55 52 53 54 54 54 54 53 53 52 53 56 56 55 57 57 58 58 57 57 58 58 57 56 56 56 57 57 58 57 56 56 54 53 52 50 50 49 49 50 50 50 50 48 47 46 45 44 44 43 42 42 41 41
37 29 25 24 28 22 24 24 26 36 43 47 46 35 37 46 47 49 50 45 45 45 46 47 47 47 45 42 45 51 53 54 55 54 55 55 55 55 55 55 55 53 54 56 55 55 57 57 57 58 58 57 56 56 56 56 56 56 55 56 57 57 56 56 54 52 51 50 50 50 50 50 50 50 50 49 47 47 45 45 44 43 42 41 40 39
36 32 34 28 35 32 27 29 37 41 45 46 49 48 49 49 50 53 53 47 47 46 49 46 50 50 50 49 52 52 52 55 55 55 56 55 55 56 55 55 55 54 54 55 55 56 56 55 56 56 56 57 57 56 56 56 56 56 56 57 55 54 53 53 52 51 51 50 50 50 50 49 49 48 47 48 48 46 45 44 44 44 42 41 40 38
38 39 41 35 31 34 37 36 41 38 46 48 49 49 49 49 49 50 49 48 49 49 50 51 53 53 53 51 50 51 52 55 55 55 55 54 54 54 55 54 54 55 54 54 55 55 54 55 56 56 57 57 56 56 56 57 57 56 57 56 54 53 52 51 51 50 50 50 50 50 48 48 48 47 46 46 45 45 44 44 43 42 41 40 39 40
38 36 36 37 39 35 30 42 42 40 45 47 46 48 47 46 45 47 50 50 49 51 51 52 53 54 54 53 52 51 54 55 54 54 54 54 54 55 54 54 55 54 53 53 54 55 54 55 55 56 56 56 56 56 56 57 56 56 57 55 54 52 52 52 51 51 51 50 50 49 47 48 46 46 46 46 45 45 45 43 43 42 40 40 38 37
40 42 34 31 34 32 36 40 42 42 46 48 47 45 46 45 46 47 48 48 46 49 51 52 52 52 52 52 52 52 54 54 55 55 54 53 54 54 54 53 55 54 54 55 55 54 54 54 54 55 55 55 55 56 56 56 56 56 56 55 53 52 52 51 50 50 50 49 49 48 47 47 42 44 45 45 45 43 44 45 43 41 40 39 40 38
40 38 30 35 33 44 40 43 42 45 44 45 45 45 46 45 44 45 46 47 47 45 45 48 52 53 52 52 52 52 52 53 54 54 54 53 53 53 54 54 54 54 55 54 56 55 54 54 54 56 56 55 55 55 55 56 55 55 54 53 52 52 51 50 49 50 50 49 48 48 47 47 46 46 45 44 44 44 43 42 42 42 41 41 39 37
38 34 38 34 30 27 37 42 46 36 37 43 42 46 47 46 44 44 44 44 46 47 47 45 46 49 50 51 51 52 52 53 54 54 53 54 53 54 55 54 54 55 55 55 56 55 55 55 55 55 55 55 55 55 55 56 55 55 53 52 51 51 51 50 50 50 49 48 47 47 46 47 46 46 46 45 44 45 44 38 39 40 41 40 37 35
38 42 43 36 37 37 44 43 47 47 45 45 48 47 46 48 45 43 43 43 44 46 46 47 47 46 47 49 50 51 50 51 53 54 54 55 56 56 55 54 55 55 55 56 56 55 56 56 56 55 55 55 55 55 55 55 55 54 53 51 51 51 50 49 49 48 48 47 47 45 46 47 46 45 46 46 45 44 43 42 40 35 34 36 37 36